Time,TemperatureF,DewpointF,PressureIn,WindDirection,WindDirectionDegrees,WindSpeedMPH,WindSpeedGustMPH,Humidity,HourlyPrecipIn,Conditions,Clouds,dailyrainin,SoftwareType,DateUTC
2013-09-12 00:00:00,80.5,73.4,30.01,WSW,247,0.0,2.0,79,0.00,,,0.00,Wunderground v.1.15,2013-09-12 04:00:00,
2013-09-12 00:05:00,80.4,73.3,30.01,WSW,247,0.0,2.0,79,0.00,,,0.00,Wunderground v.1.15,2013-09-12 04:05:00,
2013-09-12 00:10:00,80.3,73.6,30.01,SW,219,0.0,2.0,80,0.00,,,0.00,Wunderground v.1.15,2013-09-12 04:10:00,
2013-09-12 00:15:00,80.2,73.5,30.00,South,173,0.0,2.0,80,0.00,,,0.00,Wunderground v.1.15,2013-09-12 04:15:00,
2013-09-12 00:20:00,80.1,73.4,30.01,WSW,239,1.0,2.0,80,0.00,,,0.00,Wunderground v.1.15,2013-09-12 04:20:00,
2013-09-12 00:25:00,80.0,73.3,30.01,SSW,207,1.0,2.0,80,0.00,,,0.00,Wunderground v.1.15,2013-09-12 04:25:00,
2013-09-12 00:30:00,80.0,73.3,30.00,SSW,207,0.0,2.0,80,0.00,,,0.00,Wunderground v.1.15,2013-09-12 04:30:00,
2013-09-12 00:35:00,79.9,73.2,30.00,SSW,207,0.0,2.0,80,0.00,,,0.00,Wunderground v.1.15,2013-09-12 04:35:00,
2013-09-12 00:40:00,79.8,73.4,30.00,SSW,207,0.0,2.0,81,0.00,,,0.00,Wunderground v.1.15,2013-09-12 04:40:00,
2013-09-12 00:45:00,79.7,73.3,30.00,South,190,0.0,2.0,81,0.00,,,0.00,Wunderground v.1.15,2013-09-12 04:45:00,
2013-09-12 00:50:00,79.6,73.3,30.00,SSW,212,0.0,2.0,81,0.00,,,0.00,Wunderground v.1.15,2013-09-12 04:50:00,
2013-09-12 00:55:00,79.5,73.5,30.00,SSW,212,0.0,2.0,82,0.00,,,0.00,Wunderground v.1.15,2013-09-12 04:55:00,
2013-09-12 01:05:00,79.3,73.3,29.99,SSW,211,0.0,2.0,82,0.00,,,0.00,Wunderground v.1.15,2013-09-12 05:05:00,
2013-09-12 01:10:00,79.2,73.2,30.00,SSW,212,0.0,2.0,82,0.00,,,0.00,Wunderground v.1.15,2013-09-12 05:10:00,
2013-09-12 01:15:00,79.1,73.1,30.00,SW,236,0.0,2.0,82,0.00,,,0.00,Wunderground v.1.15,2013-09-12 05:15:00,
2013-09-12 01:20:00,78.9,73.3,29.99,SW,236,1.0,3.0,83,0.00,,,0.00,Wunderground v.1.15,2013-09-12 05:20:00,
2013-09-12 01:30:00,78.7,73.1,29.99,SW,236,0.0,2.0,83,0.00,,,0.00,Wunderground v.1.15,2013-09-12 05:30:00,
2013-09-12 01:35:00,78.5,73.3,29.99,SW,236,0.0,2.0,84,0.00,,,0.00,Wunderground v.1.15,2013-09-12 05:35:00,
2013-09-12 01:40:00,78.4,73.2,29.99,SW,236,0.0,2.0,84,0.00,,,0.00,Wunderground v.1.15,2013-09-12 05:40:00,
2013-09-12 01:45:00,78.2,73.0,29.99,SW,236,0.0,2.0,84,0.00,,,0.00,Wunderground v.1.15,2013-09-12 05:45:00,
2013-09-12 01:55:00,77.7,73.2,29.99,SW,236,0.0,2.0,86,0.00,,,0.00,Wunderground v.1.15,2013-09-12 05:55:00,
2013-09-12 02:00:00,77.5,73.0,29.99,WSW,240,0.0,2.0,86,0.00,,,0.00,Wunderground v.1.15,2013-09-12 06:00:00,
2013-09-12 02:05:00,77.4,72.9,29.99,WSW,240,0.0,2.0,86,0.00,,,0.00,Wunderground v.1.15,2013-09-12 06:05:00,
2013-09-12 02:10:00,77.3,72.8,29.98,WSW,240,0.0,2.0,86,0.00,,,0.00,Wunderground v.1.15,2013-09-12 06:10:00,
2013-09-12 02:15:00,77.2,73.0,29.98,WSW,240,0.0,2.0,87,0.00,,,0.00,Wunderground v.1.15,2013-09-12 06:15:00,
2013-09-12 02:25:00,77.0,72.8,29.98,WSW,240,0.0,2.0,87,0.00,,,0.00,Wunderground v.1.15,2013-09-12 06:25:00,
2013-09-12 02:30:00,77.0,72.8,29.98,WSW,240,0.0,2.0,87,0.00,,,0.00,Wunderground v.1.15,2013-09-12 06:30:00,
2013-09-12 02:35:00,76.9,72.7,29.98,WSW,240,0.0,2.0,87,0.00,,,0.00,Wunderground v.1.15,2013-09-12 06:35:00,
2013-09-12 02:45:00,76.7,72.9,29.98,WSW,240,0.0,2.0,88,0.00,,,0.00,Wunderground v.1.15,2013-09-12 06:45:00,
2013-09-12 02:50:00,76.6,72.8,29.98,WSW,240,0.0,2.0,88,0.00,,,0.00,Wunderground v.1.15,2013-09-12 06:50:00,
2013-09-12 02:55:00,76.6,72.8,29.98,WSW,240,0.0,2.0,88,0.00,,,0.00,Wunderground v.1.15,2013-09-12 06:55:00,
2013-09-12 03:00:00,76.5,72.7,29.97,WSW,240,0.0,2.0,88,0.00,,,0.00,Wunderground v.1.15,2013-09-12 07:00:00,
2013-09-12 03:05:00,76.3,72.5,29.97,WSW,240,0.0,2.0,88,0.00,,,0.00,Wunderground v.1.15,2013-09-12 07:05:00,
2013-09-12 03:15:00,76.1,72.3,29.97,WSW,240,0.0,2.0,88,0.00,,,0.00,Wunderground v.1.15,2013-09-12 07:15:00,
2013-09-12 03:20:00,76.0,72.5,29.97,WSW,246,0.0,2.0,89,0.00,,,0.00,Wunderground v.1.15,2013-09-12 07:20:00,
2013-09-12 03:25:00,76.0,72.5,29.97,WSW,245,0.0,2.0,89,0.00,,,0.00,Wunderground v.1.15,2013-09-12 07:25:00,
2013-09-12 03:30:00,75.9,72.4,29.97,WSW,245,0.0,2.0,89,0.00,,,0.00,Wunderground v.1.15,2013-09-12 07:30:00,
2013-09-12 03:40:00,75.8,72.3,29.97,SW,232,0.0,2.0,89,0.00,,,0.00,Wunderground v.1.15,2013-09-12 07:40:00,
2013-09-12 03:45:00,75.7,72.2,29.97,SW,232,0.0,2.0,89,0.00,,,0.00,Wunderground v.1.15,2013-09-12 07:45:00,
2013-09-12 03:50:00,75.7,72.2,29.97,SW,232,0.0,2.0,89,0.00,,,0.00,Wunderground v.1.15,2013-09-12 07:50:00,
2013-09-12 03:55:00,75.6,72.1,29.96,SW,232,0.0,2.0,89,0.00,,,0.00,Wunderground v.1.15,2013-09-12 07:55:00,
2013-09-12 04:00:00,75.5,72.0,29.96,SW,232,0.0,2.0,89,0.00,,,0.00,Wunderground v.1.15,2013-09-12 08:00:00,
2013-09-12 04:10:00,75.3,71.8,29.96,SSE,159,0.0,2.0,89,0.00,,,0.00,Wunderground v.1.15,2013-09-12 08:10:00,
2013-09-12 04:15:00,75.2,71.7,29.96,SSE,159,0.0,2.0,89,0.00,,,0.00,Wunderground v.1.15,2013-09-12 08:15:00,
2013-09-12 04:20:00,75.2,72.1,29.96,SSE,159,0.0,2.0,90,0.00,,,0.00,Wunderground v.1.15,2013-09-12 08:20:00,
2013-09-12 04:25:00,75.1,72.0,29.96,SSE,159,0.0,2.0,90,0.00,,,0.00,Wunderground v.1.15,2013-09-12 08:25:00,
2013-09-12 04:30:00,75.0,71.9,29.96,SSE,159,0.0,2.0,90,0.00,,,0.00,Wunderground v.1.15,2013-09-12 08:30:00,
2013-09-12 04:40:00,74.8,71.7,29.96,SW,234,0.0,2.0,90,0.00,,,0.00,Wunderground v.1.15,2013-09-12 08:40:00,
2013-09-12 04:45:00,74.6,71.8,29.95,SW,234,0.0,2.0,91,0.00,,,0.00,Wunderground v.1.15,2013-09-12 08:45:00,
2013-09-12 04:50:00,74.5,71.7,29.96,SW,234,0.0,2.0,91,0.00,,,0.00,Wunderground v.1.15,2013-09-12 08:50:00,
2013-09-12 05:00:00,74.4,71.6,29.95,SW,234,0.0,2.0,91,0.00,,,0.00,Wunderground v.1.15,2013-09-12 09:00:00,
2013-09-12 05:05:00,74.3,71.5,29.95,SW,234,0.0,2.0,91,0.00,,,0.00,Wunderground v.1.15,2013-09-12 09:05:00,
2013-09-12 05:10:00,74.3,71.5,29.95,SW,234,0.0,2.0,91,0.00,,,0.00,Wunderground v.1.15,2013-09-12 09:10:00,
2013-09-12 05:15:00,74.2,71.4,29.95,SW,234,0.0,2.0,91,0.00,,,0.00,Wunderground v.1.15,2013-09-12 09:15:00,
2013-09-12 05:20:00,74.1,71.6,29.95,SW,234,0.0,2.0,92,0.00,,,0.00,Wunderground v.1.15,2013-09-12 09:20:00,
2013-09-12 05:30:00,73.9,71.4,29.95,SW,234,0.0,2.0,92,0.00,,,0.00,Wunderground v.1.15,2013-09-12 09:30:00,
2013-09-12 05:35:00,73.9,71.4,29.95,SW,234,0.0,2.0,92,0.00,,,0.00,Wunderground v.1.15,2013-09-12 09:35:00,
2013-09-12 05:40:00,73.8,71.3,29.95,SW,234,0.0,2.0,92,0.00,,,0.00,Wunderground v.1.15,2013-09-12 09:40:00,
2013-09-12 05:45:00,73.7,71.2,29.95,SW,234,0.0,2.0,92,0.00,,,0.00,Wunderground v.1.15,2013-09-12 09:45:00,
2013-09-12 05:50:00,73.7,71.5,29.95,SW,234,0.0,2.0,93,0.00,,,0.00,Wunderground v.1.15,2013-09-12 09:50:00,
2013-09-12 06:00:00,73.5,71.4,29.95,SW,234,0.0,2.0,93,0.00,,,0.00,Wunderground v.1.15,2013-09-12 10:00:00,
2013-09-12 06:05:00,73.5,71.4,29.96,SW,234,0.0,2.0,93,0.00,,,0.00,Wunderground v.1.15,2013-09-12 10:05:00,
2013-09-12 06:10:00,73.4,71.3,29.96,SW,234,0.0,2.0,93,0.00,,,0.00,Wunderground v.1.15,2013-09-12 10:10:00,
2013-09-12 06:15:00,73.3,71.2,29.96,SW,234,0.0,2.0,93,0.00,,,0.00,Wunderground v.1.15,2013-09-12 10:15:00,
2013-09-12 06:20:00,73.3,71.2,29.96,SW,234,0.0,2.0,93,0.00,,,0.00,Wunderground v.1.15,2013-09-12 10:20:00,
2013-09-12 06:30:00,73.2,71.1,29.96,SW,234,0.0,2.0,93,0.00,,,0.00,Wunderground v.1.15,2013-09-12 10:30:00,
2013-09-12 06:35:00,73.1,71.3,29.96,SW,234,0.0,2.0,94,0.00,,,0.00,Wunderground v.1.15,2013-09-12 10:35:00,
2013-09-12 06:40:00,73.1,71.3,29.96,SW,234,0.0,2.0,94,0.00,,,0.00,Wunderground v.1.15,2013-09-12 10:40:00,
2013-09-12 06:45:00,73.0,71.2,29.96,SW,234,0.0,2.0,94,0.00,,,0.00,Wunderground v.1.15,2013-09-12 10:45:00,
2013-09-12 06:55:00,73.0,71.2,29.96,SW,234,0.0,2.0,94,0.00,,,0.00,Wunderground v.1.15,2013-09-12 10:55:00,
2013-09-12 07:00:00,72.9,71.1,29.96,SW,234,0.0,2.0,94,0.00,,,0.00,Wunderground v.1.15,2013-09-12 11:00:00,
2013-09-12 07:05:00,72.9,71.1,29.96,SW,234,0.0,2.0,94,0.00,,,0.00,Wunderground v.1.15,2013-09-12 11:05:00,
2013-09-12 07:10:00,72.9,71.1,29.96,SW,221,0.0,2.0,94,0.00,,,0.00,Wunderground v.1.15,2013-09-12 11:10:00,
2013-09-12 07:20:00,72.9,71.1,29.97,SW,218,0.0,2.0,94,0.00,,,0.00,Wunderground v.1.15,2013-09-12 11:20:00,
2013-09-12 07:25:00,73.0,71.2,29.97,SW,218,0.0,2.0,94,0.00,,,0.00,Wunderground v.1.15,2013-09-12 11:25:00,
2013-09-12 07:30:00,73.1,71.3,29.97,SW,218,0.0,2.0,94,0.00,,,0.00,Wunderground v.1.15,2013-09-12 11:30:00,
2013-09-12 07:35:00,73.2,71.4,29.96,SW,219,0.0,2.0,94,0.00,,,0.00,Wunderground v.1.15,2013-09-12 11:35:00,
2013-09-12 07:40:00,73.3,71.2,29.96,SW,219,0.0,2.0,93,0.00,,,0.00,Wunderground v.1.15,2013-09-12 11:40:00,
2013-09-12 07:50:00,73.4,71.3,29.97,South,184,0.0,2.0,93,0.00,,,0.00,Wunderground v.1.15,2013-09-12 11:50:00,
2013-09-12 07:55:00,73.5,71.4,29.97,South,184,0.0,2.0,93,0.00,,,0.00,Wunderground v.1.15,2013-09-12 11:55:00,
2013-09-12 08:00:00,73.7,71.5,29.97,South,183,0.0,2.0,93,0.00,,,0.00,Wunderground v.1.15,2013-09-12 12:00:00,
2013-09-12 08:05:00,74.1,71.9,29.97,WSW,244,0.0,2.0,93,0.00,,,0.00,Wunderground v.1.15,2013-09-12 12:05:00,
2013-09-12 08:10:00,74.4,71.9,29.96,SSW,205,0.0,2.0,92,0.00,,,0.00,Wunderground v.1.15,2013-09-12 12:10:00,
2013-09-12 08:20:00,74.9,72.1,29.96,SSW,212,1.0,2.0,91,0.00,,,0.00,Wunderground v.1.15,2013-09-12 12:20:00,
2013-09-12 08:25:00,75.1,72.3,29.95,SSW,211,1.0,2.0,91,0.00,,,0.00,Wunderground v.1.15,2013-09-12 12:25:00,
2013-09-12 08:30:00,75.4,72.6,29.95,SW,229,0.0,2.0,91,0.00,,,0.00,Wunderground v.1.15,2013-09-12 12:30:00,
2013-09-12 08:35:00,75.8,72.7,29.95,SW,229,0.0,2.0,90,0.00,,,0.00,Wunderground v.1.15,2013-09-12 12:35:00,
2013-09-12 08:40:00,76.2,72.7,29.94,SW,229,0.0,5.0,89,0.00,,,0.00,Wunderground v.1.15,2013-09-12 12:40:00,
2013-09-12 08:50:00,76.2,72.7,29.94,SW,229,1.0,1.0,89,0.00,,,0.00,Wunderground v.1.15,2013-09-12 12:50:00,
2013-09-12 08:55:00,76.6,73.1,29.94,SSE,160,0.0,2.0,89,0.00,,,0.00,Wunderground v.1.15,2013-09-12 12:55:00,
2013-09-12 09:00:00,77.0,73.2,29.94,SSE,160,0.0,2.0,88,0.00,,,0.00,Wunderground v.1.15,2013-09-12 13:00:00,
2013-09-12 09:05:00,77.7,73.9,29.94,SSE,160,0.0,2.0,88,0.00,,,0.00,Wunderground v.1.15,2013-09-12 13:05:00,
2013-09-12 09:15:00,78.7,73.8,29.94,West,259,1.0,2.0,85,0.00,,,0.00,Wunderground v.1.15,2013-09-12 13:15:00,
2013-09-12 09:20:00,78.7,73.8,29.94,SW,230,2.0,2.0,85,0.00,,,0.00,Wunderground v.1.15,2013-09-12 13:20:00,
2013-09-12 09:25:00,78.7,73.8,29.93,SW,230,2.0,2.0,85,0.00,,,0.00,Wunderground v.1.15,2013-09-12 13:25:00,
2013-09-12 09:30:00,78.8,73.9,29.93,SW,230,1.0,2.0,85,0.00,,,0.00,Wunderground v.1.15,2013-09-12 13:30:00,
2013-09-12 09:35:00,78.9,74.0,29.93,SW,230,2.0,2.0,85,0.00,,,0.00,Wunderground v.1.15,2013-09-12 13:35:00,
2013-09-12 09:45:00,80.0,74.7,29.93,SW,215,1.0,2.0,84,0.00,,,0.00,Wunderground v.1.15,2013-09-12 13:45:00,
2013-09-12 09:50:00,80.7,74.7,29.93,SW,215,0.0,2.0,82,0.00,,,0.00,Wunderground v.1.15,2013-09-12 13:50:00,
2013-09-12 09:55:00,81.3,75.3,29.93,SW,215,0.0,2.0,82,0.00,,,0.00,Wunderground v.1.15,2013-09-12 13:55:00,
2013-09-12 10:00:00,81.7,74.9,29.93,West,265,1.0,2.0,80,0.00,,,0.00,Wunderground v.1.15,2013-09-12 14:00:00,
2013-09-12 10:10:00,82.5,74.9,29.93,SSW,194,1.0,3.0,78,0.00,,,0.00,Wunderground v.1.15,2013-09-12 14:10:00,
2013-09-12 10:15:00,82.7,75.1,29.93,SW,222,1.0,3.0,78,0.00,,,0.00,Wunderground v.1.15,2013-09-12 14:15:00,
2013-09-12 10:20:00,83.2,76.0,29.92,East,91,1.0,1.0,79,0.00,,,0.00,Wunderground v.1.15,2013-09-12 14:20:00,
2013-09-12 10:25:00,83.7,75.7,29.92,East,94,1.0,2.0,77,0.00,,,0.00,Wunderground v.1.15,2013-09-12 14:25:00,
2013-09-12 10:30:00,84.0,75.6,29.92,SSW,201,1.0,2.0,76,0.00,,,0.00,Wunderground v.1.15,2013-09-12 14:30:00,
2013-09-12 10:40:00,84.8,76.0,29.92,ESE,111,0.0,2.0,75,0.00,,,0.00,Wunderground v.1.15,2013-09-12 14:40:00,
2013-09-12 10:45:00,85.0,75.8,29.92,East,82,1.0,2.0,74,0.00,,,0.00,Wunderground v.1.15,2013-09-12 14:45:00,
2013-09-12 10:50:00,85.5,75.4,29.92,SSE,167,1.0,1.0,72,0.00,,,0.00,Wunderground v.1.15,2013-09-12 14:50:00,
2013-09-12 10:55:00,85.8,75.3,29.91,South,172,1.0,2.0,71,0.00,,,0.00,Wunderground v.1.15,2013-09-12 14:55:00,
2013-09-12 11:05:00,86.3,76.2,29.91,East,90,0.0,2.0,72,0.00,,,0.00,Wunderground v.1.15,2013-09-12 15:05:00,
2013-09-12 11:10:00,86.0,75.5,29.91,East,79,1.0,2.0,71,0.00,,,0.00,Wunderground v.1.15,2013-09-12 15:10:00,
2013-09-12 11:15:00,85.8,75.3,29.91,East,98,2.0,2.0,71,0.00,,,0.00,Wunderground v.1.15,2013-09-12 15:15:00,
2013-09-12 11:20:00,85.9,75.8,29.91,ESE,110,2.0,2.0,72,0.00,,,0.00,Wunderground v.1.15,2013-09-12 15:20:00,
2013-09-12 11:25:00,86.4,75.5,29.90,NNE,13,1.0,2.0,70,0.00,,,0.00,Wunderground v.1.15,2013-09-12 15:25:00,
2013-09-12 11:35:00,87.0,76.5,29.90,ESE,119,1.0,2.0,71,0.00,,,0.00,Wunderground v.1.15,2013-09-12 15:35:00,
2013-09-12 11:40:00,87.1,75.7,29.90,South,175,1.0,1.0,69,0.00,,,0.00,Wunderground v.1.15,2013-09-12 15:40:00,
2013-09-12 11:45:00,87.6,75.7,29.90,East,87,1.0,4.0,68,0.00,,,0.00,Wunderground v.1.15,2013-09-12 15:45:00,
2013-09-12 11:50:00,87.7,76.3,29.90,SSW,212,2.0,2.0,69,0.00,,,0.00,Wunderground v.1.15,2013-09-12 15:50:00,
2013-09-12 11:55:00,88.0,75.7,29.90,West,261,2.0,5.0,67,0.00,,,0.00,Wunderground v.1.15,2013-09-12 15:55:00,
2013-09-12 12:05:00,88.5,76.1,29.89,SSW,206,1.0,2.0,67,0.00,,,0.00,Wunderground v.1.15,2013-09-12 16:05:00,
2013-09-12 12:10:00,89.0,76.6,29.89,SSW,197,1.0,3.0,67,0.00,,,0.00,Wunderground v.1.15,2013-09-12 16:10:00,
2013-09-12 12:15:00,89.6,76.7,29.89,South,180,1.0,3.0,66,0.00,,,0.00,Wunderground v.1.15,2013-09-12 16:15:00,
2013-09-12 12:20:00,88.9,76.5,29.89,East,97,1.0,2.0,67,0.00,,,0.00,Wunderground v.1.15,2013-09-12 16:20:00,
2013-09-12 12:30:00,88.6,76.2,29.88,SW,218,1.0,1.0,67,0.00,,,0.00,Wunderground v.1.15,2013-09-12 16:30:00,
2013-09-12 12:35:00,88.8,76.9,29.88,WSW,250,0.0,4.0,68,0.00,,,0.00,Wunderground v.1.15,2013-09-12 16:35:00,
2013-09-12 12:40:00,88.6,76.2,29.88,WSW,242,1.0,2.0,67,0.00,,,0.00,Wunderground v.1.15,2013-09-12 16:40:00,
2013-09-12 12:45:00,88.1,77.1,29.88,WSW,252,2.0,2.0,70,0.00,,,0.00,Wunderground v.1.15,2013-09-12 16:45:00,
2013-09-12 12:50:00,87.8,76.4,29.87,WSW,256,1.0,2.0,69,0.00,,,0.00,Wunderground v.1.15,2013-09-12 16:50:00,
2013-09-12 13:00:00,88.1,76.6,29.86,SW,225,1.0,3.0,69,0.00,,,0.00,Wunderground v.1.15,2013-09-12 17:00:00,
2013-09-12 13:05:00,88.5,76.6,29.86,SE,144,2.0,3.0,68,0.00,,,0.00,Wunderground v.1.15,2013-09-12 17:05:00,
2013-09-12 13:10:00,88.8,76.0,29.86,SW,236,2.0,2.0,66,0.00,,,0.00,Wunderground v.1.15,2013-09-12 17:10:00,
2013-09-12 13:15:00,88.8,76.9,29.86,SW,236,1.0,2.0,68,0.00,,,0.00,Wunderground v.1.15,2013-09-12 17:15:00,
2013-09-12 13:25:00,89.9,76.6,29.85,SW,229,2.0,2.0,65,0.00,,,0.00,Wunderground v.1.15,2013-09-12 17:25:00,
2013-09-12 13:30:00,90.2,76.4,29.84,SW,215,3.0,3.0,64,0.00,,,0.00,Wunderground v.1.15,2013-09-12 17:30:00,
2013-09-12 13:35:00,90.4,77.0,29.84,WSW,252,3.0,3.0,65,0.00,,,0.00,Wunderground v.1.15,2013-09-12 17:35:00,
2013-09-12 13:40:00,90.5,76.2,29.84,WSW,253,2.0,7.0,63,0.00,,,0.00,Wunderground v.1.15,2013-09-12 17:40:00,
2013-09-12 13:45:00,90.3,76.0,29.84,WSW,245,3.0,7.0,63,0.00,,,0.00,Wunderground v.1.15,2013-09-12 17:45:00,
2013-09-12 13:55:00,89.7,76.4,29.84,WSW,248,3.0,5.0,65,0.00,,,0.00,Wunderground v.1.15,2013-09-12 17:55:00,
2013-09-12 14:00:00,89.9,76.6,29.85,WNW,292,1.0,9.0,65,0.00,,,0.00,Wunderground v.1.15,2013-09-12 18:00:00,
2013-09-12 14:05:00,89.4,75.6,29.84,WSW,242,3.0,9.0,64,0.00,,,0.00,Wunderground v.1.15,2013-09-12 18:05:00,
2013-09-12 14:10:00,89.0,75.7,29.84,WSW,248,4.0,4.0,65,0.00,,,0.00,Wunderground v.1.15,2013-09-12 18:10:00,
2013-09-12 14:15:00,88.8,76.0,29.84,WSW,238,2.0,4.0,66,0.00,,,0.00,Wunderground v.1.15,2013-09-12 18:15:00,
2013-09-12 14:25:00,88.1,75.8,29.83,WSW,241,0.0,3.0,67,0.00,,,0.00,Wunderground v.1.15,2013-09-12 18:25:00,
2013-09-12 14:30:00,87.8,77.2,29.82,West,259,1.0,1.0,71,0.00,,,0.00,Wunderground v.1.15,2013-09-12 18:30:00,
2013-09-12 14:35:00,87.5,76.1,29.82,SSE,159,1.0,2.0,69,0.00,,,0.00,Wunderground v.1.15,2013-09-12 18:35:00,
2013-09-12 14:40:00,87.3,75.4,29.81,WNW,294,1.0,5.0,68,0.00,,,0.00,Wunderground v.1.15,2013-09-12 18:40:00,
2013-09-12 14:50:00,87.9,76.0,29.81,WSW,248,1.0,2.0,68,0.00,,,0.00,Wunderground v.1.15,2013-09-12 18:50:00,
2013-09-12 14:55:00,88.2,76.3,29.81,West,259,1.0,2.0,68,0.00,,,0.00,Wunderground v.1.15,2013-09-12 18:55:00,
2013-09-12 15:00:00,88.0,77.4,29.80,South,183,1.0,2.0,71,0.00,,,0.00,Wunderground v.1.15,2013-09-12 19:00:00,
2013-09-12 15:05:00,88.1,76.2,29.80,South,182,1.0,2.0,68,0.00,,,0.00,Wunderground v.1.15,2013-09-12 19:05:00,
2013-09-12 15:15:00,89.2,75.9,29.78,South,190,1.0,2.0,65,0.00,,,0.00,Wunderground v.1.15,2013-09-12 19:15:00,
2013-09-12 15:20:00,89.9,76.1,29.77,SSW,205,2.0,2.0,64,0.00,,,0.00,Wunderground v.1.15,2013-09-12 19:20:00,
2013-09-12 15:25:00,90.5,76.2,29.77,South,188,2.0,2.0,63,0.00,,,0.00,Wunderground v.1.15,2013-09-12 19:25:00,
2013-09-12 15:30:00,90.7,75.9,29.76,East,92,1.0,2.0,62,0.00,,,0.00,Wunderground v.1.15,2013-09-12 19:30:00,
2013-09-12 15:35:00,90.9,75.6,29.76,SSW,209,1.0,2.0,61,0.00,,,0.00,Wunderground v.1.15,2013-09-12 19:35:00,
2013-09-12 15:45:00,91.5,75.7,29.76,WNW,283,2.0,6.0,60,0.00,,,0.00,Wunderground v.1.15,2013-09-12 19:45:00,
2013-09-12 15:50:00,91.4,75.6,29.77,SW,216,3.0,3.0,60,0.00,,,0.00,Wunderground v.1.15,2013-09-12 19:50:00,
2013-09-12 15:55:00,91.4,76.1,29.78,East,94,2.0,3.0,61,0.00,,,0.00,Wunderground v.1.15,2013-09-12 19:55:00,
2013-09-12 16:00:00,90.8,75.5,29.77,West,265,1.0,2.0,61,0.00,,,0.00,Wunderground v.1.15,2013-09-12 20:00:00,
2013-09-12 16:05:00,90.2,75.4,29.77,ESE,105,2.0,2.0,62,0.00,,,0.00,Wunderground v.1.15,2013-09-12 20:05:00,
2013-09-12 16:15:00,86.0,71.5,29.77,NW,304,2.0,3.0,62,0.00,,,0.00,Wunderground v.1.15,2013-09-12 20:15:00,
2013-09-12 16:20:00,83.4,71.3,29.78,West,271,2.0,2.0,67,0.00,,,0.00,Wunderground v.1.15,2013-09-12 20:20:00,
2013-09-12 16:25:00,81.7,71.0,29.78,WNW,295,2.0,2.0,70,0.00,,,0.00,Wunderground v.1.15,2013-09-12 20:25:00,
2013-09-12 16:30:00,80.8,70.5,29.77,WNW,299,1.0,1.0,71,0.00,,,0.00,Wunderground v.1.15,2013-09-12 20:30:00,
2013-09-12 16:40:00,78.7,69.7,29.80,WNW,303,2.0,6.0,74,0.00,,,0.00,Wunderground v.1.15,2013-09-12 20:40:00,
2013-09-12 16:45:00,76.8,70.9,29.81,WNW,302,6.0,6.0,82,0.58,,,0.01,Wunderground v.1.15,2013-09-12 20:45:00,
2013-09-12 16:50:00,74.4,71.3,29.81,WNW,297,6.0,6.0,90,0.57,,,0.09,Wunderground v.1.15,2013-09-12 20:50:00,
2013-09-12 16:55:00,73.1,71.0,29.82,West,260,3.0,6.0,93,0.32,,,0.12,Wunderground v.1.15,2013-09-12 20:55:00,
2013-09-12 17:00:00,72.0,70.2,29.82,WNW,298,3.0,3.0,94,0.12,,,0.13,Wunderground v.1.15,2013-09-12 21:00:00,
2013-09-12 17:10:00,71.4,70.2,29.79,WNW,298,0.0,2.0,96,0.06,,,0.14,Wunderground v.1.15,2013-09-12 21:10:00,
2013-09-12 17:15:00,71.3,70.4,29.78,WNW,298,0.0,2.0,97,0.06,,,0.14,Wunderground v.1.15,2013-09-12 21:15:00,
2013-09-12 17:20:00,71.2,70.3,29.78,WNW,298,0.0,2.0,97,0.05,,,0.14,Wunderground v.1.15,2013-09-12 21:20:00,
2013-09-12 17:25:00,71.1,70.5,29.78,WNW,298,0.0,2.0,98,0.04,,,0.14,Wunderground v.1.15,2013-09-12 21:25:00,
2013-09-12 17:35:00,71.1,70.8,29.78,WNW,298,0.0,2.0,99,0.00,,,0.14,Wunderground v.1.15,2013-09-12 21:35:00,
2013-09-12 17:40:00,71.2,70.9,29.78,WNW,298,0.0,2.0,99,0.00,,,0.15,Wunderground v.1.15,2013-09-12 21:40:00,
2013-09-12 17:45:00,71.3,71.0,29.79,WNW,298,0.0,2.0,99,0.00,,,0.15,Wunderground v.1.15,2013-09-12 21:45:00,
2013-09-12 17:50:00,71.3,71.0,29.79,WNW,298,0.0,2.0,99,0.00,,,0.15,Wunderground v.1.15,2013-09-12 21:50:00,
2013-09-12 17:55:00,71.5,71.2,29.79,WSW,252,0.0,2.0,99,0.00,,,0.15,Wunderground v.1.15,2013-09-12 21:55:00,
2013-09-12 18:05:00,71.5,71.2,29.78,South,186,0.0,2.0,99,0.00,,,0.15,Wunderground v.1.15,2013-09-12 22:05:00,
2013-09-12 18:10:00,71.6,71.3,29.78,South,186,0.0,2.0,99,0.00,,,0.15,Wunderground v.1.15,2013-09-12 22:10:00,
2013-09-12 18:15:00,71.7,71.4,29.78,South,186,0.0,2.0,99,0.00,,,0.16,Wunderground v.1.15,2013-09-12 22:15:00,
2013-09-12 18:20:00,71.7,71.4,29.80,SW,232,1.0,3.0,99,0.00,,,0.16,Wunderground v.1.15,2013-09-12 22:20:00,
2013-09-12 18:25:00,71.5,71.2,29.81,West,270,2.0,3.0,99,0.05,,,0.17,Wunderground v.1.15,2013-09-12 22:25:00,
2013-09-12 18:35:00,71.3,71.0,29.80,WNW,282,2.0,4.0,99,0.11,,,0.19,Wunderground v.1.15,2013-09-12 22:35:00,
2013-09-12 18:40:00,71.3,71.3,29.79,WNW,282,1.0,1.0,100,0.13,,,0.20,Wunderground v.1.15,2013-09-12 22:40:00,
2013-09-12 18:45:00,71.3,71.3,29.79,West,281,1.0,2.0,100,0.14,,,0.21,Wunderground v.1.15,2013-09-12 22:45:00,
2013-09-12 18:50:00,71.3,71.3,29.78,West,262,1.0,1.0,100,0.10,,,0.22,Wunderground v.1.15,2013-09-12 22:50:00,
2013-09-12 19:00:00,71.3,71.3,29.77,West,262,0.0,2.0,100,0.05,,,0.22,Wunderground v.1.15,2013-09-12 23:00:00,
2013-09-12 19:05:00,71.3,71.3,29.77,West,262,0.0,2.0,100,0.04,,,0.22,Wunderground v.1.15,2013-09-12 23:05:00,
2013-09-12 19:10:00,71.3,71.3,29.77,West,261,0.0,2.0,100,0.00,,,0.22,Wunderground v.1.15,2013-09-12 23:10:00,
2013-09-12 19:15:00,71.3,71.3,29.77,West,262,0.0,2.0,100,0.00,,,0.22,Wunderground v.1.15,2013-09-12 23:15:00,
2013-09-12 19:25:00,71.5,71.5,29.78,West,262,0.0,2.0,100,0.00,,,0.22,Wunderground v.1.15,2013-09-12 23:25:00,
2013-09-12 19:30:00,71.3,71.3,29.78,West,261,0.0,2.0,100,0.00,,,0.22,Wunderground v.1.15,2013-09-12 23:30:00,
2013-09-12 19:35:00,71.3,71.3,29.78,West,261,0.0,2.0,100,0.00,,,0.22,Wunderground v.1.15,2013-09-12 23:35:00,
2013-09-12 19:40:00,71.3,71.3,29.78,West,262,0.0,2.0,100,0.00,,,0.22,Wunderground v.1.15,2013-09-12 23:40:00,
2013-09-12 19:45:00,71.4,71.4,29.78,West,262,0.0,2.0,100,0.00,,,0.22,Wunderground v.1.15,2013-09-12 23:45:00,
2013-09-12 19:55:00,71.5,71.5,29.78,West,261,0.0,2.0,100,0.00,,,0.22,Wunderground v.1.15,2013-09-12 23:55:00,
2013-09-12 20:00:00,71.5,71.5,29.78,West,261,0.0,2.0,100,0.00,,,0.22,Wunderground v.1.15,2013-09-13 00:00:00,
2013-09-12 20:05:00,71.4,71.4,29.77,West,262,0.0,2.0,100,0.00,,,0.22,Wunderground v.1.15,2013-09-13 00:05:00,
2013-09-12 20:10:00,71.3,71.3,29.77,West,262,0.0,2.0,100,0.00,,,0.22,Wunderground v.1.15,2013-09-13 00:10:00,
2013-09-12 20:15:00,71.3,71.3,29.77,West,261,0.0,2.0,100,0.00,,,0.22,Wunderground v.1.15,2013-09-13 00:15:00,
2013-09-12 20:25:00,71.3,71.3,29.77,West,262,0.0,2.0,100,0.00,,,0.22,Wunderground v.1.15,2013-09-13 00:25:00,
2013-09-12 20:30:00,71.3,71.3,29.77,West,262,0.0,2.0,100,0.00,,,0.22,Wunderground v.1.15,2013-09-13 00:30:00,
2013-09-12 20:35:00,71.3,71.3,29.77,West,262,0.0,2.0,100,0.00,,,0.22,Wunderground v.1.15,2013-09-13 00:35:00,
2013-09-12 20:40:00,71.3,71.3,29.78,West,261,0.0,2.0,100,0.00,,,0.22,Wunderground v.1.15,2013-09-13 00:40:00,
2013-09-12 20:45:00,71.3,71.3,29.78,West,262,0.0,2.0,100,0.00,,,0.22,Wunderground v.1.15,2013-09-13 00:45:00,
2013-09-12 20:55:00,71.3,71.3,29.78,West,262,0.0,2.0,100,0.00,,,0.22,Wunderground v.1.15,2013-09-13 00:55:00,
2013-09-12 21:00:00,71.3,71.3,29.78,West,261,0.0,2.0,100,0.00,,,0.22,Wunderground v.1.15,2013-09-13 01:00:00,
2013-09-12 21:05:00,71.2,71.2,29.79,West,262,0.0,2.0,100,0.00,,,0.22,Wunderground v.1.15,2013-09-13 01:05:00,
2013-09-12 21:10:00,71.3,71.3,29.79,West,261,0.0,2.0,100,0.00,,,0.22,Wunderground v.1.15,2013-09-13 01:10:00,
2013-09-12 21:20:00,71.1,71.1,29.78,West,262,0.0,2.0,100,0.00,,,0.22,Wunderground v.1.15,2013-09-13 01:20:00,
2013-09-12 21:25:00,71.1,71.1,29.78,West,262,0.0,2.0,100,0.00,,,0.22,Wunderground v.1.15,2013-09-13 01:25:00,
2013-09-12 21:30:00,71.1,71.1,29.78,West,262,0.0,2.0,100,0.00,,,0.22,Wunderground v.1.15,2013-09-13 01:30:00,
2013-09-12 21:35:00,71.1,71.1,29.78,West,262,0.0,2.0,100,0.00,,,0.22,Wunderground v.1.15,2013-09-13 01:35:00,
2013-09-12 21:45:00,71.1,71.1,29.78,West,262,0.0,2.0,100,0.00,,,0.22,Wunderground v.1.15,2013-09-13 01:45:00,
2013-09-12 21:50:00,71.1,71.1,29.78,West,262,0.0,2.0,100,0.00,,,0.22,Wunderground v.1.15,2013-09-13 01:50:00,
2013-09-12 21:55:00,71.1,71.1,29.78,West,262,0.0,2.0,100,0.00,,,0.22,Wunderground v.1.15,2013-09-13 01:55:00,
2013-09-12 22:00:00,71.1,71.1,29.77,West,262,0.0,2.0,100,0.00,,,0.22,Wunderground v.1.15,2013-09-13 02:00:00,
2013-09-12 22:05:00,71.0,71.0,29.78,West,261,0.0,2.0,100,0.00,,,0.22,Wunderground v.1.15,2013-09-13 02:05:00,
2013-09-12 22:15:00,70.8,70.8,29.78,West,262,0.0,2.0,100,0.00,,,0.22,Wunderground v.1.15,2013-09-13 02:15:00,
2013-09-12 22:20:00,70.7,70.7,29.78,West,262,0.0,2.0,100,0.00,,,0.22,Wunderground v.1.15,2013-09-13 02:20:00,
2013-09-12 22:25:00,70.7,70.7,29.78,West,262,0.0,2.0,100,0.00,,,0.22,Wunderground v.1.15,2013-09-13 02:25:00,
2013-09-12 22:30:00,70.7,70.7,29.78,West,261,0.0,2.0,100,0.00,,,0.22,Wunderground v.1.15,2013-09-13 02:30:00,
2013-09-12 22:35:00,70.7,70.7,29.78,West,262,0.0,2.0,100,0.00,,,0.22,Wunderground v.1.15,2013-09-13 02:35:00,
2013-09-12 22:45:00,70.8,70.8,29.78,West,261,0.0,2.0,100,0.00,,,0.22,Wunderground v.1.15,2013-09-13 02:45:00,
2013-09-12 22:50:00,70.8,70.8,29.78,West,261,0.0,2.0,100,0.00,,,0.22,Wunderground v.1.15,2013-09-13 02:50:00,
2013-09-12 22:55:00,70.8,70.8,29.78,West,261,0.0,2.0,100,0.00,,,0.22,Wunderground v.1.15,2013-09-13 02:55:00,
2013-09-12 23:00:00,70.8,70.8,29.78,West,262,0.0,2.0,100,0.00,,,0.22,Wunderground v.1.15,2013-09-13 03:00:00,
2013-09-12 23:05:00,70.7,70.7,29.77,West,262,0.0,2.0,100,0.00,,,0.22,Wunderground v.1.15,2013-09-13 03:05:00,
2013-09-12 23:15:00,70.5,70.5,29.77,West,261,0.0,2.0,100,0.00,,,0.22,Wunderground v.1.15,2013-09-13 03:15:00,
2013-09-12 23:20:00,70.4,70.4,29.77,West,262,0.0,2.0,100,0.00,,,0.22,Wunderground v.1.15,2013-09-13 03:20:00,
2013-09-12 23:25:00,70.3,70.3,29.76,West,261,0.0,2.0,100,0.00,,,0.22,Wunderground v.1.15,2013-09-13 03:25:00,
2013-09-12 23:35:00,70.2,70.2,29.76,West,261,0.0,2.0,100,0.00,,,0.22,Wunderground v.1.15,2013-09-13 03:35:00,
2013-09-12 23:40:00,70.3,70.3,29.76,West,275,1.0,1.0,100,0.00,,,0.22,Wunderground v.1.15,2013-09-13 03:40:00,
2013-09-12 23:45:00,70.3,70.3,29.76,West,276,1.0,2.0,100,0.00,,,0.22,Wunderground v.1.15,2013-09-13 03:45:00,
2013-09-12 23:50:00,70.3,70.3,29.76,West,276,0.0,2.0,100,0.00,,,0.22,Wunderground v.1.15,2013-09-13 03:50:00,
2013-09-12 23:55:00,70.4,70.4,29.76,West,276,0.0,2.0,100,0.00,,,0.22,Wunderground v.1.15,2013-09-13 03:55:00,